[[{"header":{"parameterUnit":"m.s-1","parameterCategory":2,"la1":30.2991,"la2":30.254,"lo1":-89.0895,"lo2":-89.0444,"dy":0.0017,"dx":0.0017,"nx":28,"ny":28,"refTime":"2024-07-29T21:00:00:Z","depth":"0","parameterNumber":2,"parameterNumberName":"U-component_of_CURRENTS"},"data":[0,0,0,0,0,0,0,0,0,0,0,0,0,0,0,0,0,0,0,0,0,0,0,0,0,0,0,0,0,0,0,0,0,0,0,0,0,0,0,0,0,0,0,0,0,0,0,0,0,0,0,0,0,0,0,0,0,0,0.3113,0.3113,0,0.3171,0.3172,0.3174,0.3281,0.3282,0.3284,0.3285,0.3473,0.3477,0.348,0,0,0,0,0,0,0,0,0,0,0,0,0,0.3076,0.3077,0.3113,0.3113,0.3113,0.3171,0.3173,0.3174,0.3281,0.3282,0.3284,0.3286,0.3472,0.3476,0.3481,0,0,0,0,0,0,0,0,0,0,0,0,0,0.3115,0.3077,0.3112,0.3169,0.3174,0.3171,0.3173,0.3174,0.328,0.3282,0.3285,0.3287,0.3471,0.3476,0.3481,0.347,0,0,0.3498,0.35,0,0,0,0,0,0,0,0,0.3112,0.3117,0.316,0.3165,0.317,0.3216,0.3228,0.3278,0.328,0.3246,0.3285,0.3288,0.3393,0.3405,0.3418,0.3479,0.3487,0.3498,0.3502,0.3504,0.3506,0,0,0,0,0,0,0,0.311,0.3115,0.3142,0.316,0.3166,0.3184,0.3193,0.3238,0.3314,0.3249,0.3256,0.3252,0.3398,0.3413,0.3424,0.349,0.3498,0.3503,0.3506,0.3509,0.3514,0.3511,0,0,0,0,0,0,0.3088,0.3112,0.314,0.3143,0.3139,0.3183,0.3193,0.3204,0.3311,0.3326,0.325,0.3256,0.3402,0.3417,0.3431,0.3407,0.3504,0.3509,0.3512,0.3517,0.3514,0.351,0,0,0,0,0,0,0.3088,0.3091,0.3138,0.3123,0.313,0.3181,0.3192,0.3204,0.3224,0.3308,0.3328,0.3258,0.3405,0.3423,0.3462,0.3416,0.3512,0.3516,0.3521,0.3516,0.3512,0.3371,0,0,0,0,0,0,0.3087,0.3091,0.3092,0.3122,0.313,0.3147,0.319,0.3203,0.3215,0.3225,0.3322,0.3342,0.3408,0.3453,0.3468,0.3426,0.3521,0.3525,0.3519,0.3513,0.3379,0.3362,0.3347,0,0,0,0,0,0.3085,0.3076,0.3092,0.3095,0.313,0.3146,0.3153,0.32,0.3213,0.3226,0.3273,0.3339,0.3426,0.3456,0.3473,0.3432,0.3528,0.3521,0.3514,0.3387,0.3365,0.3347,0,0,0,0,0,0,0.3039,0.3086,0.3105,0.3104,0.3127,0.3162,0.3151,0.3186,0.323,0.3225,0.3318,0.334,0.3358,0.3402,0.3433,0.3409,0.3479,0.3475,0.3376,0.3357,0.3341,0.3326,0.3525,0,0,0,0,0,0.3029,0.3048,0.3082,0.3076,0.3073,0.3108,0.3115,0.3145,0.3181,0.3202,0.3262,0.3303,0.3336,0.3356,0.3402,0.3393,0.3386,0.3367,0.3351,0.3337,0.3331,0.3286,0.3265,0.3487,0.3487,0.3488,0,0,0.3008,0.3029,0.3041,0.3069,0.3072,0.3052,0.312,0.3112,0.3099,0.3212,0.3205,0.3264,0.3324,0.332,0.3327,0.3355,0.3253,0.3328,0.3317,0.3318,0.3276,0.3255,0.3236,0.3483,0.3484,0.3484,0,0,0.2948,0.2982,0.2968,0.2979,0.2982,0.3001,0.2995,0.3023,0.3042,0.305,0.311,0.3141,0.3192,0.3222,0.3243,0.3159,0.3181,0.3156,0.3056,0.301,0.2992,0.2976,0.287,0.2846,0.3134,0.3134,0.3134,0,0.2904,0.29,0.2961,0.2929,0.291,0.2967,0.2918,0.294,0.2982,0.2984,0.303,0.3075,0.3143,0.3123,0.3095,0.3126,0.3076,0.3131,0.2989,0.2974,0.296,0.2857,0.2832,0.3126,0.3127,0.3128,0.3129,0,0.2829,0.2821,0.2794,0.2782,0.2779,0.2744,0.2768,0.277,0.2794,0.283,0.2835,0.2914,0.2945,0.2953,0.3007,0.2929,0.2913,0.2985,0.3041,0.2929,0.2826,0.2803,0.3115,0.3118,0.312,0.3122,0,0,0.2708,0.2741,0.2723,0.2703,0.2694,0.268,0.2636,0.263,0.2603,0.2656,0.2625,0.2685,0.2742,0.2767,0.2824,0.2788,0.2643,0.2826,0.2828,0.2723,0.2469,0.2347,0.231,0.268,0.2677,0.2674,0.2411,0,0.2605,0.2555,0.2585,0.2502,0.2465,0.2495,0.2452,0.246,0.2491,0.2486,0.2556,0.2565,0.2662,0.2665,0.2646,0.2666,0.2585,0.2704,0.2593,0.2588,0.2497,0.2282,0.2245,0.1998,0.2389,0.2386,0.2383,0,0.2479,0.2478,0.2402,0.2379,0.2355,0.2315,0.2261,0.2237,0.2257,0.2279,0.2308,0.2384,0.2361,0.2465,0.239,0.2451,0.2433,0.2439,0.2431,0.236,0.2424,0.2187,0.1943,0.1933,0.2348,0.2351,0.2353,0,0.2352,0.2322,0.2268,0.2257,0.2245,0.2199,0.2176,0.2173,0.2141,0.2148,0.2131,0.2156,0.2145,0.2143,0.2175,0.2259,0.2067,0.2197,0.2051,0.2041,0.201,0.2002,0.1755,0.2103,0.2103,0.2104,0.2105,0,0.2209,0.2153,0.2217,0.2178,0.2099,0.2107,0.2012,0.2007,0.198,0.1925,0.2017,0.1976,0.2064,0.2009,0.2053,0.1928,0.1955,0.1962,0.1948,0.1949,0.194,0.194,0.1945,0.2094,0.2096,0.2098,0.21,0,0.2052,0.2089,0.2033,0.204,0.2036,0.1971,0.1915,0.1858,0.1838,0.1761,0.1747,0.1779,0.1701,0.174,0.1706,0.1726,0.1592,0.162,0.1575,0.156,0.1442,0.1442,0.1086,0.1072,0.1395,0.139,0.1386,0,0.197,0.1934,0.1944,0.1915,0.191,0.1848,0.1797,0.178,0.1721,0.1642,0.1587,0.1513,0.1469,0.1326,0.1347,0.128,0.1349,0.1187,0.1367,0.1338,0.133,0.1319,0.1339,0.1245,0.124,0.1236,0.1232,0,0.182,0.183,0.1805,0.1761,0.1716,0.167,0.1605,0.1549,0.1503,0.144,0.133,0.1285,0.1175,0.1111,0.1017,0.1014,0.1111,0.1098,0.1101,0.1167,0.1106,0.1123,0.1486,0.1197,0.12,0.1203,0.1205,0.1206,0.1709,0.1666,0.1644,0.1577,0.154,0.1477,0.1405,0.1354,0.125,0.1133,0.1134,0.1032,0.0985,0.0879,0.0835,0.0754,0.0817,0.0802,0.0786,0.0766,0.0783,0.1006,0.0702,0.0703,0.0704,0.0704,0.0705,0,0.1553,0.152,0.1463,0.1387,0.1308,0.1338,0.1255,0.1181,0.1057,0.0994,0.0901,0.0803,0.0709,0.0675,0.0576,0.0503,0.0555,0.0474,0.052,0.0555,0.0777,0.0812,0.0478,0.0478,0.0479,0.0479,0.0479,0.0479,0.147,0.1363,0.1335,0.1176,0.1134,0.1027,0.0979,0.0903,0.0847,0.0719,0.0651,0.0636,0.0574,0.0416,0.0315,0.0314,0.0328,0.0217,0.0257,0.0515,0.055,0.0584,0.062,0.0251,0.0251,0.0089,0.0088,0.0086]},{"header":{"parameterUnit":"m.s-1","parameterCategory":2,"la1":30.2991,"la2":30.254,"lo1":-89.0895,"lo2":-89.0444,"dy":0.0017,"dx":0.0017,"nx":28,"ny":28,"refTime":"2024-07-29T21:00:00:Z","depth":"0","parameterNumber":3,"parameterNumberName":"V-component_of_CURRENTS"},"data":[0,0,0,0,0,0,0,0,0,0,0,0,0,0,0,0,0,0,0,0,0,0,0,0,0,0,0,0,0,0,0,0,0,0,0,0,0,0,0,0,0,0,0,0,0,0,0,0,0,0,0,0,0,0,0,0,0,0,0.0441,0.0441,0,0.0514,0.0515,0.0516,0.0541,0.054,0.0539,0.0539,0.0587,0.0589,0.0591,0,0,0,0,0,0,0,0,0,0,0,0,0,0.0342,0.0344,0.0441,0.0441,0.0442,0.0514,0.0515,0.0517,0.0541,0.054,0.0539,0.0538,0.0586,0.0589,0.0591,0,0,0,0,0,0,0,0,0,0,0,0,0,0.0401,0.0344,0.0441,0.046,0.0462,0.0514,0.0515,0.0517,0.0541,0.054,0.0539,0.0538,0.0586,0.0589,0.0591,0.063,0,0,0.06,0.0601,0,0,0,0,0,0,0,0,0.0397,0.0405,0.0456,0.0458,0.0461,0.0513,0.0498,0.0552,0.0541,0.0515,0.0539,0.0537,0.0558,0.0563,0.0586,0.0632,0.0634,0.06,0.0602,0.0604,0.0604,0,0,0,0,0,0,0,0.0393,0.0402,0.0474,0.0457,0.046,0.0471,0.0478,0.0509,0.0544,0.0517,0.0518,0.052,0.056,0.0583,0.0587,0.0635,0.06,0.0603,0.0605,0.0606,0.0724,0.0725,0,0,0,0,0,0,0.0376,0.0398,0.0472,0.0476,0.0421,0.0473,0.0482,0.0501,0.0545,0.0549,0.0521,0.0521,0.0578,0.0583,0.0589,0.0666,0.0603,0.0606,0.0608,0.0723,0.0724,0.0726,0,0,0,0,0,0,0.0374,0.0383,0.0469,0.0434,0.0445,0.0475,0.0497,0.0503,0.0528,0.0547,0.0552,0.0539,0.0578,0.0584,0.0633,0.0666,0.0608,0.061,0.0721,0.0723,0.0725,0.0801,0,0,0,0,0,0,0.0371,0.0382,0.0396,0.0434,0.0446,0.052,0.0498,0.0505,0.0529,0.053,0.0565,0.0568,0.0578,0.0629,0.0636,0.0669,0.0612,0.0719,0.0722,0.0724,0.0797,0.0805,0.0813,0,0,0,0,0,0.0368,0.0419,0.0396,0.0405,0.0463,0.0522,0.0532,0.055,0.053,0.0564,0.058,0.0567,0.0649,0.0633,0.0641,0.0676,0.0718,0.0721,0.0724,0.0793,0.0804,0.0813,0,0,0,0,0,0,0.0395,0.0426,0.0403,0.046,0.0483,0.0524,0.056,0.0555,0.0595,0.0593,0.0596,0.0603,0.0658,0.0655,0.0636,0.0715,0.0677,0.0682,0.0727,0.0737,0.0745,0.0772,0.0615,0,0,0,0,0,0.0398,0.0437,0.0455,0.0498,0.0511,0.0526,0.0549,0.0559,0.0592,0.0609,0.0626,0.0644,0.0679,0.0696,0.0727,0.0776,0.0755,0.0798,0.0806,0.0813,0.0839,0.083,0.084,0.0736,0.0736,0.0736,0,0,0.0417,0.0439,0.0458,0.0504,0.0523,0.0569,0.0542,0.059,0.063,0.0608,0.0673,0.068,0.0698,0.0758,0.0779,0.0758,0.0828,0.0817,0.0823,0.0846,0.0834,0.0844,0.0853,0.0738,0.0738,0.0738,0,0,0.048,0.0494,0.0539,0.0565,0.0593,0.0613,0.0623,0.0659,0.0681,0.0737,0.0727,0.0761,0.0805,0.0835,0.0851,0.0922,0.0873,0.0911,0.0977,0.0968,0.0976,0.0983,0.0954,0.0958,0.0912,0.0912,0.0913,0,0.0489,0.0548,0.0563,0.0609,0.0636,0.0632,0.0682,0.0718,0.0763,0.0787,0.0768,0.0841,0.0854,0.0926,0.0952,0.0945,0.0912,0.0939,0.0978,0.0985,0.0991,0.096,0.0963,0.0916,0.0916,0.0916,0.0915,0,0.0577,0.0617,0.0656,0.0703,0.0744,0.0794,0.0825,0.0864,0.0872,0.0892,0.0957,0.0976,0.1012,0.1018,0.1014,0.1067,0.1019,0.099,0.0953,0.1006,0.0969,0.0972,0.0922,0.0921,0.092,0.0919,0,0,0.0594,0.0692,0.0699,0.0728,0.0792,0.0835,0.0912,0.0975,0.1007,0.1052,0.11,0.1168,0.1147,0.1165,0.115,0.1154,0.1166,0.1093,0.109,0.1064,0.1119,0.1044,0.1038,0.1126,0.1127,0.1128,0.1069,0,0.064,0.0741,0.0784,0.0873,0.0921,0.0953,0.1018,0.1074,0.1105,0.1151,0.1183,0.1212,0.1209,0.1201,0.1222,0.117,0.1178,0.1184,0.1073,0.107,0.0997,0.1042,0.1067,0.1013,0.1071,0.1071,0.1071,0,0.0692,0.0753,0.0849,0.0939,0.0961,0.1012,0.1093,0.1147,0.1214,0.1231,0.128,0.1279,0.1319,0.1283,0.1271,0.1261,0.1215,0.1177,0.1173,0.1086,0.1001,0.0973,0.1015,0.1083,0.1074,0.1074,0.1074,0,0.0681,0.0793,0.087,0.0902,0.1006,0.1048,0.1093,0.1164,0.119,0.1256,0.1257,0.1323,0.13,0.1297,0.1233,0.1239,0.1183,0.1172,0.1075,0.1067,0.1064,0.1053,0.1165,0.1178,0.1178,0.1178,0.1179,0,0.071,0.0766,0.0864,0.0901,0.0971,0.1038,0.1095,0.1146,0.1192,0.1207,0.127,0.1272,0.1293,0.1263,0.124,0.1152,0.1183,0.1106,0.1059,0.1087,0.108,0.1116,0.1146,0.1176,0.1177,0.1177,0.1177,0,0.069,0.0758,0.0835,0.0938,0.0966,0.1003,0.1066,0.1092,0.1134,0.1149,0.1156,0.1203,0.1162,0.1165,0.1123,0.1111,0.1085,0.102,0.1041,0.0999,0.0988,0.1019,0.1031,0.1084,0.0931,0.0929,0.0927,0,0.0701,0.0739,0.0834,0.0855,0.0897,0.0954,0.0981,0.1049,0.1061,0.1092,0.1085,0.1067,0.106,0.0988,0.0973,0.0929,0.0988,0.0907,0.0952,0.1011,0.1012,0.1025,0.1072,0.0971,0.097,0.0969,0.0969,0,0.07,0.072,0.0771,0.0806,0.0838,0.0887,0.0924,0.093,0.0985,0.0989,0.0978,0.0975,0.0932,0.0921,0.0862,0.0841,0.0977,0.0882,0.096,0.108,0.1088,0.1106,0.097,0.096,0.0961,0.0961,0.0962,0.0962,0.0676,0.0686,0.0723,0.0752,0.0783,0.0806,0.0828,0.0857,0.0868,0.0881,0.0885,0.0895,0.0932,0.0872,0.0837,0.0862,0.0876,0.0906,0.0943,0.0952,0.1013,0.0839,0.0758,0.0758,0.0757,0.0757,0.0757,0,0.0636,0.0644,0.0666,0.0698,0.0702,0.0743,0.078,0.0797,0.0799,0.0839,0.0835,0.0914,0.0907,0.0933,0.096,0.0972,0.1008,0.0987,0.1078,0.1129,0.0996,0.1011,0.0961,0.0961,0.0961,0.0961,0.0961,0.0961,0.0614,0.0603,0.061,0.0607,0.0629,0.0647,0.0666,0.0699,0.075,0.0819,0.0897,0.0971,0.109,0.1081,0.1133,0.1132,0.1241,0.1164,0.1223,0.1199,0.1197,0.1195,0.1221,0.1216,0.1216,0.1388,0.139,0.1391]}],[{"header":{"parameterUnit":"m.s-1","parameterCategory":2,"la1":30.2991,"la2":30.254,"lo1":-89.0895,"lo2":-89.0444,"dy":0.0017,"dx":0.0017,"nx":28,"ny":28,"refTime":"2024-07-29T21:00:00:Z","depth":"2","parameterNumber":2,"parameterNumberName":"U-component_of_CURRENTS"},"data":[0,0,0,0,0,0,0,0,0,0,0,0,0,0,0,0,0,0,0,0,0,0,0,0,0,0,0,0,0,0,0,0,0,0,0,0,0,0,0,0,0,0,0,0,0,0,0,0,0,0,0,0,0,0,0,0,0,0,0.2177,0.218,0,0.2351,0.2352,0.2354,0.242,0.242,0.242,0.2419,0.2684,0.2691,0.2698,0,0,0,0,0,0,0,0,0,0,0,0,0,0.1832,0.1838,0.2177,0.218,0.2182,0.235,0.2352,0.2354,0.242,0.242,0.242,0.2419,0.2682,0.269,0.2699,0,0,0,0,0,0,0,0,0,0,0,0,0,0.1988,0.184,0.2177,0.2238,0.2246,0.235,0.2352,0.2355,0.242,0.242,0.2419,0.2419,0.2679,0.2689,0.27,0.277,0,0,0.2733,0.2737,0,0,0,0,0,0,0,0,0.1979,0.2,0.2227,0.2234,0.2243,0.2367,0.2328,0.25,0.242,0.2349,0.2419,0.2419,0.2589,0.2607,0.2633,0.2783,0.2794,0.2734,0.274,0.2745,0.2748,0,0,0,0,0,0,0,0.1968,0.1992,0.2242,0.2229,0.2239,0.2233,0.2255,0.236,0.2467,0.2356,0.2362,0.2388,0.2594,0.2623,0.264,0.2798,0.2733,0.2743,0.275,0.2754,0.3061,0.3063,0,0,0,0,0,0,0.196,0.1983,0.2236,0.2247,0.2112,0.224,0.2265,0.2324,0.2464,0.2486,0.2388,0.239,0.2604,0.2628,0.265,0.2735,0.2745,0.2755,0.2761,0.3059,0.3061,0.3063,0,0,0,0,0,0,0.1953,0.1983,0.2229,0.2119,0.2151,0.2247,0.2313,0.2328,0.2398,0.2488,0.2511,0.2448,0.2605,0.2635,0.2783,0.2746,0.276,0.2769,0.3057,0.306,0.3062,0.291,0,0,0,0,0,0,0.1943,0.198,0.2052,0.2121,0.2157,0.2327,0.2314,0.2331,0.2414,0.242,0.2548,0.2569,0.2607,0.2767,0.2794,0.2761,0.2778,0.3055,0.3058,0.3061,0.2913,0.2907,0.2902,0,0,0,0,0,0.193,0.2014,0.2055,0.2087,0.2245,0.233,0.235,0.2411,0.2418,0.2469,0.255,0.2567,0.2804,0.2779,0.281,0.2778,0.3054,0.3058,0.3061,0.2915,0.2908,0.2902,0,0,0,0,0,0,0.1941,0.2032,0.2077,0.22,0.228,0.2344,0.2398,0.2438,0.2541,0.2553,0.2622,0.2651,0.2751,0.2822,0.2792,0.2883,0.292,0.293,0.2798,0.2793,0.2787,0.2709,0.2787,0,0,0,0,0,0.1971,0.2039,0.2134,0.224,0.227,0.2343,0.2396,0.244,0.2522,0.2566,0.2646,0.2729,0.2786,0.2839,0.2922,0.3005,0.2964,0.3002,0.2996,0.299,0.2954,0.2905,0.2888,0.3076,0.3076,0.3076,0,0,0.1994,0.2068,0.2104,0.2243,0.2295,0.2329,0.2374,0.2461,0.2484,0.2584,0.2661,0.2735,0.2813,0.2873,0.2921,0.2931,0.2906,0.2995,0.2989,0.2954,0.2907,0.2887,0.287,0.3078,0.3078,0.3078,0,0,0.2018,0.2145,0.217,0.2239,0.234,0.2373,0.2405,0.2494,0.2532,0.2636,0.2668,0.273,0.2875,0.2872,0.2893,0.2929,0.2886,0.2965,0.2862,0.2815,0.2796,0.278,0.2629,0.2601,0.2951,0.2951,0.2951,0,0.2054,0.2115,0.22,0.2241,0.2263,0.2381,0.238,0.2454,0.2585,0.2588,0.2657,0.2764,0.2845,0.2826,0.2818,0.2902,0.2842,0.2863,0.2796,0.278,0.2765,0.2616,0.2586,0.2944,0.2945,0.2946,0.2946,0,0.2062,0.2131,0.2156,0.2217,0.2249,0.2306,0.2366,0.2429,0.2487,0.2534,0.2584,0.2688,0.2732,0.2756,0.2795,0.2721,0.2694,0.279,0.2782,0.2734,0.2583,0.2553,0.2934,0.2937,0.2939,0.294,0,0,0.2077,0.214,0.2158,0.2152,0.2239,0.226,0.2276,0.2301,0.2304,0.2433,0.2402,0.2487,0.2544,0.2572,0.2627,0.2578,0.2405,0.2622,0.2623,0.2414,0.2202,0.2156,0.212,0.2482,0.2478,0.2475,0.2107,0,0.2057,0.2096,0.2105,0.2105,0.2106,0.2154,0.2142,0.2185,0.225,0.2286,0.2349,0.2389,0.2477,0.2489,0.2456,0.2433,0.2335,0.2489,0.2331,0.2324,0.2243,0.209,0.2027,0.1695,0.2079,0.2074,0.2071,0,0.2007,0.2065,0.2041,0.201,0.2004,0.201,0.1974,0.1983,0.2039,0.2082,0.2123,0.222,0.2164,0.2289,0.2142,0.2232,0.2189,0.2164,0.2153,0.2142,0.2227,0.1829,0.1628,0.2022,0.2026,0.203,0.2033,0,0.1916,0.1964,0.1933,0.1954,0.1973,0.193,0.1913,0.1929,0.1893,0.1956,0.1947,0.1975,0.1958,0.1929,0.1928,0.2008,0.1754,0.1873,0.1762,0.1754,0.1684,0.1679,0.1743,0.1743,0.1744,0.1745,0.1746,0,0.1841,0.1832,0.1918,0.1933,0.1875,0.1869,0.1777,0.1794,0.1773,0.1718,0.1842,0.1812,0.1873,0.1801,0.1808,0.1653,0.1651,0.1659,0.165,0.1629,0.1623,0.1945,0.1973,0.1731,0.1734,0.1737,0.1739,0,0.1705,0.1775,0.1754,0.1814,0.1824,0.1767,0.1675,0.1632,0.162,0.1546,0.1547,0.1595,0.1505,0.1528,0.1442,0.145,0.1357,0.1322,0.1241,0.1231,0.1391,0.1417,0.1077,0.1073,0.1068,0.1065,0.1062,0,0.1631,0.1632,0.1676,0.1668,0.1697,0.1639,0.1595,0.1565,0.1509,0.142,0.1382,0.1311,0.1289,0.1107,0.1124,0.1021,0.1174,0.0895,0.1071,0.1292,0.1318,0.1351,0.1382,0.0865,0.0861,0.0858,0.0855,0,0.1539,0.1554,0.1554,0.1535,0.1515,0.1454,0.1404,0.1341,0.1285,0.1225,0.1134,0.11,0.0987,0.0903,0.0817,0.0788,0.0916,0.0819,0.1025,0.1097,0.1078,0.1111,0.115,0.0824,0.0827,0.0829,0.0831,0.0832,0.1452,0.1412,0.1412,0.136,0.1341,0.1287,0.1201,0.1164,0.1052,0.0947,0.0947,0.0847,0.083,0.068,0.0618,0.0581,0.0676,0.0667,0.0683,0.0701,0.0796,0.0778,0.0474,0.0475,0.0476,0.0477,0.0478,0,0.1326,0.1296,0.1248,0.118,0.1114,0.1153,0.108,0.0994,0.0882,0.0822,0.0734,0.0603,0.0522,0.0509,0.0414,0.0382,0.0434,0.0357,0.0453,0.0482,0.0508,0.0601,0.0222,0.0222,0.0221,0.022,0,0,0.125,0.1155,0.1124,0.0997,0.0963,0.087,0.0828,0.0748,0.0686,0.0572,0.0504,0.0497,0.0494,0.037,0.0337,0.0272,0.0382,0.0245,0.0449,0.0593,0.0619,0.0678,0.0851,0,0,0,0,0]},{"header":{"parameterUnit":"m.s-1","parameterCategory":2,"la1":30.2991,"la2":30.254,"lo1":-89.0895,"lo2":-89.0444,"dy":0.0017,"dx":0.0017,"nx":28,"ny":28,"refTime":"2024-07-29T21:00:00:Z","depth":"2","parameterNumber":3,"parameterNumberName":"V-component_of_CURRENTS"},"data":[0,0,0,0,0,0,0,0,0,0,0,0,0,0,0,0,0,0,0,0,0,0,0,0,0,0,0,0,0,0,0,0,0,0,0,0,0,0,0,0,0,0,0,0,0,0,0,0,0,0,0,0,0,0,0,0,0,0,0.0119,0.0119,0,0.0142,0.0142,0.0142,0.012,0.012,0.0119,0.0119,0.0212,0.0215,0.0218,0,0,0,0,0,0,0,0,0,0,0,0,0,-0.0041,-0.0038,0.0119,0.0119,0.012,0.0142,0.0142,0.0142,0.012,0.012,0.0119,0.0119,0.0211,0.0215,0.0218,0,0,0,0,0,0,0,0,0,0,0,0,0,0.0006,-0.0037,0.0119,0.0116,0.0116,0.0142,0.0142,0.0142,0.012,0.012,0.0119,0.0118,0.021,0.0214,0.0219,0.0258,0,0,0.0232,0.0234,0,0,0,0,0,0,0,0,0.0003,0.0011,0.0115,0.0116,0.0116,0.0132,0.012,0.0186,0.012,0.0114,0.0119,0.0118,0.0195,0.0201,0.0199,0.0262,0.0266,0.0232,0.0235,0.0237,0.0238,0,0,0,0,0,0,0,-0.0,0.0009,0.0123,0.0116,0.0117,0.008,0.0087,0.0131,0.0155,0.0114,0.0114,0.0124,0.0195,0.0194,0.0201,0.0268,0.0232,0.0236,0.0238,0.024,0.0457,0.046,0,0,0,0,0,0,0.0013,0.0007,0.0122,0.0124,0.0062,0.0085,0.0091,0.0123,0.0153,0.0158,0.0125,0.0123,0.0187,0.0196,0.0205,0.0328,0.0237,0.0241,0.0243,0.0454,0.0458,0.0461,0,0,0,0,0,0,0.001,0.0024,0.0121,0.0068,0.0078,0.0089,0.0125,0.0124,0.0138,0.0162,0.0166,0.0141,0.0187,0.0198,0.0285,0.0329,0.0243,0.0246,0.045,0.0455,0.046,0.0529,0,0,0,0,0,0,0.0006,0.0024,0.003,0.007,0.0082,0.0162,0.0126,0.0125,0.0147,0.0145,0.0177,0.0184,0.0188,0.0279,0.029,0.0333,0.025,0.0446,0.0452,0.0458,0.0522,0.0535,0.0546,0,0,0,0,0,0.0,0.0058,0.0031,0.0043,0.0099,0.0165,0.0168,0.0167,0.0149,0.0172,0.0205,0.0183,0.0323,0.0286,0.0297,0.0343,0.0443,0.0451,0.0458,0.0517,0.0533,0.0546,0,0,0,0,0,0,0.0012,0.0062,0.0033,0.0104,0.0128,0.0163,0.0196,0.0181,0.022,0.0233,0.0231,0.0243,0.033,0.0339,0.0297,0.0426,0.0378,0.0387,0.0419,0.0434,0.0445,0.0433,0.0253,0,0,0,0,0,0.0009,0.0055,0.0086,0.0138,0.0163,0.017,0.0188,0.0197,0.0242,0.0256,0.0284,0.0324,0.0367,0.0402,0.0445,0.0524,0.0484,0.0561,0.0573,0.0583,0.0584,0.0584,0.0594,0.0485,0.0485,0.0484,0,0,0.0016,0.006,0.0075,0.0139,0.0164,0.0224,0.0182,0.0249,0.0297,0.0267,0.036,0.0372,0.0398,0.0483,0.0522,0.0498,0.059,0.0592,0.06,0.0595,0.0592,0.0602,0.0611,0.049,0.0489,0.0488,0,0,0.0083,0.0111,0.0161,0.0203,0.0259,0.0281,0.0305,0.0358,0.0379,0.0464,0.0449,0.049,0.0575,0.0589,0.0606,0.0716,0.065,0.0733,0.0787,0.0787,0.0795,0.0801,0.0732,0.0732,0.0741,0.0741,0.0741,0,0.0078,0.0162,0.0184,0.0261,0.03,0.0316,0.038,0.0425,0.0495,0.0513,0.0518,0.0607,0.0624,0.069,0.0722,0.0739,0.0704,0.0723,0.0798,0.0804,0.0809,0.0737,0.0735,0.0745,0.0745,0.0745,0.0744,0,0.019,0.0243,0.0305,0.0389,0.0429,0.0516,0.0568,0.0619,0.0645,0.0661,0.0739,0.0766,0.0805,0.0819,0.0805,0.0856,0.0803,0.0805,0.0748,0.0823,0.0743,0.074,0.0751,0.075,0.0749,0.0748,0,0,0.0225,0.0344,0.0366,0.04,0.051,0.0563,0.0658,0.0723,0.0764,0.0836,0.0883,0.0947,0.093,0.0948,0.0935,0.0932,0.0921,0.0886,0.0884,0.0793,0.0868,0.0856,0.085,0.0934,0.0935,0.0935,0.0782,0,0.0296,0.0433,0.0477,0.0594,0.0662,0.0702,0.0777,0.0834,0.0875,0.0939,0.0963,0.1011,0.0993,0.0998,0.1008,0.0933,0.0923,0.0958,0.0831,0.0825,0.0787,0.0852,0.0829,0.0696,0.0779,0.0779,0.0778,0,0.0385,0.0469,0.0581,0.067,0.0703,0.0773,0.086,0.0919,0.0992,0.1019,0.1068,0.1083,0.1096,0.1082,0.1012,0.1032,0.0966,0.0908,0.0901,0.0866,0.0812,0.0646,0.0687,0.0773,0.0773,0.0774,0.0774,0,0.0393,0.0534,0.0618,0.0666,0.0781,0.0824,0.0872,0.0937,0.0956,0.1051,0.1056,0.1118,0.11,0.1077,0.0985,0.099,0.0889,0.0878,0.0804,0.0798,0.0743,0.0733,0.0851,0.0852,0.0852,0.0852,0.0853,0,0.0455,0.053,0.0633,0.0694,0.0775,0.0835,0.089,0.0948,0.0993,0.1003,0.108,0.1089,0.1096,0.1054,0.0997,0.0885,0.09,0.0815,0.078,0.0765,0.076,0.0809,0.0806,0.0847,0.0848,0.0849,0.085,0,0.0444,0.0525,0.0616,0.074,0.0777,0.0819,0.0865,0.0895,0.0935,0.0948,0.097,0.102,0.0969,0.0957,0.0879,0.0852,0.0778,0.0741,0.0695,0.0662,0.0669,0.0672,0.0624,0.0623,0.0622,0.0621,0.0621,0,0.0459,0.0511,0.0619,0.0654,0.0714,0.0773,0.0806,0.0864,0.0874,0.089,0.0896,0.088,0.0882,0.078,0.0757,0.0679,0.0706,0.06,0.0639,0.0686,0.0656,0.066,0.0665,0.0555,0.0554,0.0553,0.0552,0,0.0483,0.0507,0.0566,0.0614,0.0667,0.0707,0.0757,0.0757,0.0802,0.0805,0.08,0.0801,0.0746,0.0701,0.0643,0.0595,0.0627,0.0577,0.0645,0.0644,0.0617,0.0589,0.0596,0.0543,0.0544,0.0545,0.0545,0.0546,0.0474,0.0485,0.0532,0.0572,0.0616,0.0647,0.0664,0.0701,0.0705,0.0717,0.0716,0.0704,0.0689,0.0609,0.0558,0.052,0.0534,0.0508,0.0512,0.0517,0.0565,0.0542,0.0456,0.0457,0.0457,0.0457,0.0457,0,0.0452,0.0464,0.0493,0.0532,0.0547,0.0593,0.0637,0.0644,0.0653,0.0674,0.0665,0.0599,0.0564,0.0545,0.0478,0.0443,0.045,0.0421,0.0441,0.0449,0.0456,0.0503,0.0376,0.0376,0.0376,0.0376,0,0,0.0439,0.0437,0.0442,0.0465,0.0492,0.0521,0.0544,0.0567,0.0597,0.059,0.059,0.0606,0.0585,0.0517,0.0468,0.0426,0.0448,0.0411,0.0477,0.0515,0.0523,0.0503,0.0584,0,0,0,0,0]}],[{"header":{"parameterUnit":"m.s-1","parameterCategory":2,"la1":30.2991,"la2":30.254,"lo1":-89.0895,"lo2":-89.0444,"dy":0.0017,"dx":0.0017,"nx":28,"ny":28,"refTime":"2024-07-29T21:00:00:Z","depth":"4","parameterNumber":2,"parameterNumberName":"U-component_of_CURRENTS"},"data":[0,0,0,0,0,0,0,0,0,0,0,0,0,0,0,0,0,0,0,0,0,0,0,0,0,0,0,0,0,0,0,0,0,0,0,0,0,0,0,0,0,0,0,0,0,0,0,0,0,0,0,0,0,0,0,0,0,0,-0.0624,-0.0624,0,-0.0632,-0.0631,-0.0631,-0.0596,-0.0596,-0.0595,-0.0595,-0.0668,-0.0671,-0.0673,0,0,0,0,0,0,0,0,0,0,0,0,0,-0.0536,-0.0538,-0.0624,-0.0624,-0.0625,-0.0632,-0.0631,-0.0631,-0.0597,-0.0596,-0.0595,-0.0594,-0.0667,-0.067,-0.0673,0,0,0,0,0,0,0,0,0,0,0,0,0,-0.0559,-0.0539,-0.0624,-0.0611,-0.061,-0.0632,-0.0631,-0.0631,-0.0597,-0.0596,-0.0595,-0.0594,-0.0666,-0.067,-0.0674,-0.0717,0,0,-0.0686,-0.0687,0,0,0,0,0,0,0,0,-0.0558,-0.0562,-0.0613,-0.0612,-0.0611,-0.0615,-0.0628,-0.0665,-0.0597,-0.0598,-0.0595,-0.0593,-0.066,-0.0664,-0.0661,-0.0721,-0.0724,-0.0686,-0.0688,-0.069,-0.0691,0,0,0,0,0,0,0,-0.0556,-0.0561,-0.0623,-0.0613,-0.0613,-0.0591,-0.0593,-0.0634,-0.0633,-0.0598,-0.0596,-0.0604,-0.0659,-0.0658,-0.0663,-0.0725,-0.0686,-0.0689,-0.0692,-0.0693,-0.0665,-0.0662,0,0,0,0,0,0,-0.0567,-0.056,-0.0623,-0.0624,-0.0586,-0.0594,-0.0596,-0.0612,-0.0631,-0.0633,-0.0604,-0.0602,-0.0652,-0.0659,-0.0666,-0.0571,-0.069,-0.0693,-0.0696,-0.0668,-0.0664,-0.0661,0,0,0,0,0,0,-0.0565,-0.0573,-0.0623,-0.0594,-0.0599,-0.0597,-0.0615,-0.0613,-0.0573,-0.0636,-0.0638,-0.0563,-0.0651,-0.066,-0.0657,-0.058,-0.0695,-0.0699,-0.0671,-0.0666,-0.0662,-0.0477,0,0,0,0,0,0,-0.0563,-0.0572,-0.0592,-0.0595,-0.0602,-0.0615,-0.0616,-0.0614,-0.0584,-0.0579,-0.0603,-0.061,-0.0651,-0.065,-0.066,-0.0587,-0.0702,-0.0675,-0.0669,-0.0664,-0.0487,-0.0467,-0.045,0,0,0,0,0,-0.056,-0.0578,-0.0593,-0.0601,-0.0628,-0.0615,-0.0615,-0.0607,-0.0582,-0.0565,-0.0564,-0.0607,-0.062,-0.0652,-0.0664,-0.059,-0.0678,-0.0671,-0.0664,-0.0496,-0.0471,-0.045,0,0,0,0,0,0,-0.0545,-0.0578,-0.0593,-0.0622,-0.0615,-0.061,-0.0603,-0.0582,-0.0566,-0.0544,-0.059,-0.0598,-0.0558,-0.0607,-0.0641,-0.0562,-0.0648,-0.0643,-0.0515,-0.0493,-0.0474,-0.0495,-0.0705,0,0,0,0,0,-0.0559,-0.0578,-0.0595,-0.0611,-0.061,-0.0596,-0.059,-0.0563,-0.0552,-0.054,-0.0537,-0.0539,-0.0547,-0.0545,-0.0562,-0.0539,-0.0614,-0.0492,-0.0473,-0.0456,-0.048,-0.0542,-0.0532,-0.0638,-0.0638,-0.0638,0,0,-0.0556,-0.0577,-0.0588,-0.0609,-0.0603,-0.0588,-0.0586,-0.0545,-0.0508,-0.0556,-0.0486,-0.0479,-0.0527,-0.0482,-0.0467,-0.0508,-0.0451,-0.0448,-0.0433,-0.0467,-0.0534,-0.0525,-0.0516,-0.0633,-0.0634,-0.0635,0,0,-0.0528,-0.0576,-0.0567,-0.0574,-0.0558,-0.0552,-0.0528,-0.0482,-0.0442,-0.038,-0.0394,-0.0354,-0.0342,-0.036,-0.0376,-0.0275,-0.0352,-0.0239,-0.016,-0.0218,-0.0211,-0.0206,-0.0231,-0.023,-0.0226,-0.0225,-0.0225,0,-0.051,-0.0531,-0.0557,-0.0549,-0.0545,-0.0528,-0.0491,-0.0466,-0.0404,-0.0379,-0.0331,-0.0292,-0.0296,-0.0303,-0.0217,-0.0235,-0.0266,-0.0239,-0.0196,-0.0193,-0.0192,-0.0219,-0.0221,-0.0216,-0.0217,-0.0218,-0.0219,0,-0.0467,-0.0498,-0.0488,-0.0486,-0.0475,-0.0443,-0.042,-0.0363,-0.0287,-0.0264,-0.0196,-0.018,-0.0172,-0.0122,-0.012,-0.009,-0.0111,-0.0167,-0.0259,-0.017,-0.0204,-0.0208,-0.0202,-0.0205,-0.0208,-0.0211,0,0,-0.0358,-0.0443,-0.0437,-0.0447,-0.0437,-0.0412,-0.0358,-0.0319,-0.0285,-0.0191,-0.0155,-0.0075,-0.0052,-0.0067,-0.0055,-0.0052,0.0004,-0.0057,-0.0065,-0.0091,-0.0083,-0.0002,-0.0001,-0.0031,-0.0032,-0.0032,-0.0092,0,-0.0299,-0.0314,-0.0349,-0.0327,-0.0326,-0.0323,-0.0283,-0.0243,-0.0195,-0.0158,-0.0137,-0.0086,-0.0047,0.0017,0.0011,0.0033,-0.0008,0.0026,-0.0161,-0.0167,-0.0114,-0.0005,-0.0036,-0.0096,-0.0098,-0.0099,-0.0099,0,-0.0205,-0.0248,-0.0238,-0.0275,-0.0264,-0.0238,-0.0186,-0.0138,-0.0132,-0.0082,-0.0065,-0.0063,0.0003,-0.0,0.0004,0.0043,-0.002,-0.0037,-0.0043,-0.0052,-0.0097,-0.0219,-0.011,-0.0109,-0.0108,-0.0108,-0.0107,0,-0.0094,-0.0146,-0.0145,-0.016,-0.0195,-0.0157,-0.013,-0.0104,-0.0045,-0.0031,0.0016,0.0004,0.0074,0.0008,0.0052,0.0035,0.0017,-0.0051,-0.0094,-0.0089,-0.0236,-0.0242,-0.0184,-0.0184,-0.0184,-0.0184,-0.0184,0,-0.0004,-0.0003,-0.0106,-0.0108,-0.0069,-0.0084,0.0005,0.0013,0.0047,0.0087,0.0072,0.0092,0.009,0.0086,0.0041,0.0037,-0.0008,-0.0066,-0.0097,-0.0145,-0.014,-0.0236,-0.0242,-0.0186,-0.0185,-0.0185,-0.0185,0,0.0125,0.0051,0.005,-0.0009,-0.0018,0.004,0.0102,0.0137,0.0186,0.0232,0.0261,0.0228,0.0246,0.0201,0.0125,0.0073,0.0017,-0.0044,-0.003,-0.0063,-0.0069,-0.0064,-0.0087,-0.0085,-0.0083,-0.0081,-0.008,0,0.0155,0.0163,0.0127,0.0128,0.0103,0.0166,0.0189,0.0228,0.0252,0.0301,0.0292,0.0317,0.0283,0.0258,0.0191,0.0094,0.0025,-0.0001,-0.0084,-0.003,-0.0058,-0.0056,-0.0054,-0.0077,-0.0076,-0.0075,-0.0075,0,0.0215,0.0234,0.0227,0.0214,0.0225,0.0256,0.0277,0.0312,0.0346,0.0385,0.0359,0.033,0.0305,0.0255,0.0215,0.0106,0.0066,0.0018,0.001,-0.0069,-0.0017,-0.0047,-0.0047,-0.0068,-0.0069,-0.0069,-0.007,0,0.0272,0.0291,0.0277,0.0278,0.0288,0.0279,0.0324,0.0313,0.0358,0.0373,0.0359,0.0324,0.0315,0.0253,0.0205,0.0176,0.0098,0.0046,0.0035,0.0026,0.0092,0.0176,0.0174,0,0,0,0,0,0.03,0.0297,0.0303,0.0284,0.0299,0.029,0.031,0.0343,0.0363,0.0348,0.0366,0.0327,0.0279,0.0238,0.0211,0.0193,0.0083,0.0159,0.0015,-0.0028,-0.0036,0.0031,0,0,0,0,0,0,0.0308,0.0325,0.0301,0.0264,0.0254,0.0249,0.0268,0.0288,0.0284,0.0312,0.028,0.0307,0.0248,0.0292,0.0203,0.0194,0.0096,0.0146,0.0145,-0.0023,-0.0031,-0.0038,0.0029,0,0,0,0,0]},{"header":{"parameterUnit":"m.s-1","parameterCategory":2,"la1":30.2991,"la2":30.254,"lo1":-89.0895,"lo2":-89.0444,"dy":0.0017,"dx":0.0017,"nx":28,"ny":28,"refTime":"2024-07-29T21:00:00:Z","depth":"4","parameterNumber":3,"parameterNumberName":"V-component_of_CURRENTS"},"data":[0,0,0,0,0,0,0,0,0,0,0,0,0,0,0,0,0,0,0,0,0,0,0,0,0,0,0,0,0,0,0,0,0,0,0,0,0,0,0,0,0,0,0,0,0,0,0,0,0,0,0,0,0,0,0,0,0,0,0.0238,0.0239,0,0.0238,0.0237,0.0236,0.0245,0.0247,0.0248,0.025,0.0214,0.0212,0.0209,0,0,0,0,0,0,0,0,0,0,0,0,0,0.0152,0.0153,0.0238,0.0239,0.0241,0.0238,0.0237,0.0235,0.0245,0.0247,0.0249,0.0251,0.0215,0.0212,0.0209,0,0,0,0,0,0,0,0,0,0,0,0,0,0.0161,0.0153,0.0238,0.0255,0.0258,0.0238,0.0237,0.0235,0.0245,0.0247,0.0249,0.0252,0.0216,0.0212,0.0209,0.014,0,0,0.0198,0.0196,0,0,0,0,0,0,0,0,0.0161,0.0162,0.0252,0.0254,0.0257,0.0256,0.0194,0.0206,0.0244,0.0235,0.025,0.0253,0.0232,0.0227,0.0203,0.0138,0.0137,0.0197,0.0195,0.0194,0.0193,0,0,0,0,0,0,0,0.016,0.0162,0.0224,0.0253,0.0257,0.0232,0.0235,0.0195,0.0209,0.0236,0.024,0.0262,0.0232,0.0206,0.0202,0.0136,0.0197,0.0194,0.0192,0.0191,0.0077,0.0076,0,0,0,0,0,0,0.0191,0.0162,0.0224,0.0225,0.023,0.0233,0.0236,0.0243,0.021,0.0212,0.026,0.0262,0.0211,0.0206,0.0201,0.0192,0.0194,0.019,0.0188,0.0078,0.0077,0.0076,0,0,0,0,0,0,0.0188,0.0195,0.0224,0.0205,0.0209,0.0234,0.0241,0.0242,0.0264,0.0232,0.023,0.0289,0.0213,0.0206,0.0197,0.0188,0.0189,0.0185,0.0079,0.0078,0.0076,0.0126,0,0,0,0,0,0,0.0185,0.0194,0.0224,0.0207,0.0212,0.0245,0.024,0.0241,0.0278,0.0282,0.0255,0.0251,0.0214,0.0202,0.0193,0.0183,0.0183,0.008,0.0078,0.0077,0.0125,0.0126,0.0127,0,0,0,0,0,0.0182,0.0207,0.0225,0.0235,0.0247,0.0248,0.0246,0.0262,0.0278,0.0288,0.0269,0.0254,0.0185,0.0199,0.0189,0.0177,0.0081,0.0079,0.0077,0.0125,0.0126,0.0127,0,0,0,0,0,0,0.018,0.0211,0.023,0.0264,0.0278,0.0256,0.0281,0.0285,0.0274,0.0286,0.0249,0.0243,0.0226,0.0194,0.0211,0.0137,0.0127,0.0123,0.0167,0.0168,0.0169,0.0147,0.018,0,0,0,0,0,0.0198,0.0235,0.0246,0.0282,0.0292,0.0293,0.0305,0.0309,0.0297,0.0297,0.0273,0.0239,0.0196,0.0185,0.0142,0.0109,0.0089,0.009,0.0091,0.0093,0.0066,0.0029,0.0025,0.007,0.007,0.007,0,0,0.0208,0.0238,0.0258,0.0288,0.0297,0.0284,0.0303,0.0328,0.0306,0.0291,0.0265,0.0248,0.019,0.0149,0.0137,0.0131,0.0079,0.009,0.0092,0.0063,0.0027,0.0023,0.0019,0.0068,0.0068,0.0069,0,0,0.0224,0.0273,0.0294,0.0301,0.0337,0.0321,0.0341,0.0332,0.0329,0.0308,0.0281,0.0259,0.021,0.015,0.0115,0.0093,0.0089,0.0097,0.0081,0.0048,0.0044,0.0041,0.006,0.0057,0.0094,0.0094,0.0094,0,0.0232,0.0249,0.03,0.0304,0.0303,0.0339,0.0318,0.0309,0.0296,0.0273,0.0313,0.0214,0.0191,0.01,0.0102,0.0092,0.0102,0.009,0.0051,0.0047,0.0042,0.0062,0.0059,0.0096,0.0096,0.0096,0.0096,0,0.024,0.025,0.0263,0.0271,0.028,0.0275,0.0271,0.0278,0.0291,0.0259,0.0216,0.0185,0.0128,0.012,0.011,0.0051,0.0083,0.0066,0.0055,0.0041,0.0063,0.0059,0.0099,0.0099,0.0098,0.0098,0,0,0.0219,0.0254,0.025,0.0243,0.0252,0.025,0.0235,0.0198,0.0178,0.0176,0.0123,0.0074,0.0086,0.0046,0.0035,0.0007,0.0017,0.0039,0.0036,0.0071,-0.0001,0.0022,0.002,0.0015,0.0013,0.0011,0.0048,0,0.0186,0.0178,0.0198,0.0164,0.0149,0.017,0.0148,0.0134,0.0126,0.009,0.0058,0.002,0.0047,0.0053,0.0024,0.0032,-0.0001,0.0011,-0.0007,-0.0007,0.0025,0.0011,0.0006,0.0044,0.0043,0.0042,0.0042,0,0.0162,0.0155,0.0124,0.0106,0.0101,0.0094,0.0074,0.0062,0.0025,0.0026,-0.0007,-0.0022,-0.0043,-0.0023,-0.003,-0.0004,-0.0013,-0.0019,-0.0017,-0.003,0.0004,0.0045,0.0033,0.0034,0.0035,0.0035,0.0036,0,0.0119,0.0092,0.0067,0.0059,0.0051,0.0052,0.006,0.0044,0.005,0.0003,0.0009,-0.0044,-0.0018,-0.0044,-0.0015,-0.0005,-0.0032,-0.0026,-0.0039,-0.0034,-0.0084,-0.0082,-0.0107,-0.0107,-0.0107,-0.0107,-0.0107,0,0.0068,0.0042,0.0057,0.004,0.0023,0.004,0.0042,0.0035,0.0042,0.0038,-0.0002,-0.0012,-0.0017,-0.0027,-0.003,-0.0014,-0.0034,-0.0053,-0.0042,-0.0056,-0.0051,-0.0083,-0.0081,-0.0105,-0.0106,-0.0106,-0.0106,0,0.0044,0.0043,0.0017,0.0007,0.0014,0.0025,0.0088,0.0094,0.0102,0.0105,0.0107,0.0062,0.0071,0.0037,0.0005,-0.0001,-0.0024,-0.0051,-0.003,-0.0015,0.0006,0.001,-0.0025,-0.0024,-0.0023,-0.0023,-0.0022,0,0.0035,0.002,0.0016,0.0026,0.0034,0.0071,0.0106,0.0135,0.0155,0.015,0.0142,0.0126,0.0094,0.0088,0.0038,0.0015,-0.0023,-0.0019,-0.0051,-0.0009,0.0005,0.0009,0.0012,-0.0021,-0.0021,-0.0021,-0.0021,0,0.0009,0.0022,0.0015,0.0041,0.0075,0.0109,0.016,0.0187,0.022,0.0213,0.02,0.0162,0.0137,0.0104,0.0072,0.0037,0.0006,-0.0013,-0.0014,-0.0045,-0.0006,0.0009,0.0011,-0.0019,-0.0019,-0.0019,-0.002,0,0.0012,0.002,0.0036,0.0061,0.0097,0.0139,0.0168,0.0211,0.0245,0.0243,0.0237,0.0184,0.0161,0.0112,0.0081,0.0064,0.0053,0.0047,0.0042,0.0039,0.0032,0.009,0.0104,0,0,0,0,0,0.0013,0.0036,0.0057,0.0088,0.0124,0.0148,0.0193,0.0223,0.0251,0.0257,0.0262,0.023,0.0184,0.0135,0.0126,0.0077,0.0039,0.0064,0.0027,-0.0007,-0.001,-0.003,0,0,0,0,0,0,0.0021,0.0045,0.0062,0.0112,0.0138,0.0186,0.0217,0.0232,0.0243,0.0254,0.0226,0.0224,0.0169,0.0194,0.0122,0.0111,0.0087,0.0039,0.0039,-0.0006,-0.0008,-0.001,-0.0032,0,0,0,0,0]}]]